Location: Morrison Observatory
(41.7012°N, 86.2315°W)
Time: 20:13:23
(UTC-04:00)

Daily predictions for brighter satellites

Satellite Brightness Start Highest point End
(mag) Time Altitude Azimuth Time Altitude Azimuth Time Altitude Azimuth
ATLAS 3B R/B 3.7 19:47:42 10° SW 19:55:12 59° NW 20:02:30 10° NNE
Cosmos 1680 Rocket 4.2 19:52:32 10° SSW 19:57:48 64° WNW 20:03:07 10° NNE
Helios 1B rocket 3.5 19:57:02 10° NE 20:00:21 23° E 20:03:38 10° SSE
SeaSat 1 4.2 20:02:10 10° E 20:03:46 11° ESE 20:05:20 10° ESE
Resurs 01 Rocket 2.2 20:05:29 10° SE 20:09:33 36° ENE 20:13:39 10° N
NOSS 3-2 (A) 3.8 20:04:56 10° S 20:10:37 45° ESE 20:16:46 10° NE
Okean 3 Rocket 3.6 20:06:38 10° N 20:11:10 63° E 20:15:39 10° SSE
SAR-Lupe-4 3.5 20:07:48 10° SSE 20:11:22 84° E 20:14:57 10° NNW
Cosmos 2333 Rocket 2.8 20:05:45 10° SW 20:11:27 64° WNW 20:17:13 10° NNE
Cosmos 292 Rocket 3.8 20:06:58 10° SSW 20:11:46 87° WNW 20:16:38 10° NNE
Resurs 1-3 4.4 20:09:47 10° SE 20:13:39 31° ENE 20:17:31 10° N
USA 238 DEB 4.0 20:08:25 10° SW 20:15:28 77° NW 20:22:33 10° NNE
USA 238 4.0 20:08:30 10° SW 20:15:34 78° NW 20:22:39 10° NNE
CZ-4B DEB 4.5 20:15:36 10° ESE 20:17:45 17° ENE 20:19:58 10° NNE
Cosmos 1484 Rocket 3.8 20:15:04 10° S 20:18:45 50° W 20:22:33 10° NNW
Spot 1 4.3 20:15:03 10° SSE 20:19:46 57° ENE 20:24:14 10° N
Atlas Centaur 2 4.1 20:13:58 10° WSW 20:21:27 35° S 20:28:27 10° SE
ATLAS CENTAUR R/B 1.4 20:19:03 10° NW 20:23:19 79° WSW 20:27:12 10° SSE
BREEZE-M DEB (TANK) 4.4 20:20:48 10° WNW 20:24:13 51° SSW 20:34:36 10° SE
Cosmos 1072 Rocket 4.4 20:22:46 10° S 20:28:47 65° E 20:34:50 10° NNE
ALOS 2.9 20:27:10 10° SE 20:31:23 35° ENE 20:35:35 10° N
In-Cosmos 22 4.5 20:26:14 10° N 20:31:50 49° ENE 20:37:23 10° SSE
Cosmos 1437 3.6 20:31:18 10° NNW 20:34:30 54° W 20:37:41 10° S
Cosmos 1766 3.2 20:34:21 10° S 20:38:18 89° ENE 20:42:19 10° N
FREGAT/IRIS 3.2 20:35:59 10° S 20:39:02 61° WSW 20:42:07 10° NNW
Spot 2 Rocket 3.4 20:34:13 10° SSE 20:39:14 78° ENE 20:44:18 10° N
Cosmos 2237 Rocket 3.4 20:34:31 10° SW 20:39:58 45° WNW 20:45:24 10° NNE
NOSS 3-3 (A) 4.5 20:33:50 10° NNW 20:41:15 69° NE 20:48:48 11° SE
NOSS 3-3 (C) 4.5 20:33:56 10° NNW 20:41:21 69° NE 20:48:51 12° SE
Cosmos 2056 Rocket 3.9 20:36:00 10° NNW 20:41:25 72° WSW 20:46:48 10° S
NOAA 12 4.5 20:36:44 10° S 20:41:56 68° WSW 20:47:13 10° NNW
OAO 3 Rocket 4.1 20:39:12 10° SW 20:43:28 33° S 20:46:05 20° ESE
Helios 1A 2.9 20:43:08 10° SSE 20:47:19 84° ENE 20:51:32 10° NNW
NOSS 3-2 (C) 3.4 20:41:30 10° SSW 20:47:29 66° ESE 20:54:00 10° NE
CZ-4C R/B 3.5 20:43:48 10° WSW 20:48:54 42° NW 20:54:38 10° NNE
CENTAUR R/B 4.0 20:47:27 10° SSE 20:48:51 14° SE 20:48:51 14° SE
ATLAS 5 CENTAUR R/B 1.9 20:47:04 10° SSW 20:51:41 53° ESE 20:56:40 10° NE
ASTEX 1 3.8 20:47:24 10° NNE 20:52:01 39° E 20:56:35 10° SSE
CZ-2D R/B 3.6 20:52:08 23° SE 20:54:11 43° ENE 20:57:54 10° N
Cosmos 1953 2.2 20:50:49 10° S 20:54:44 61° E 20:58:41 10° NNE
SL-16 R/B 2.5 20:52:45 10° SSW 20:58:25 71° WNW 21:04:08 10° NNE
Meteor 2-12 Rocket 4.4 20:52:42 10° S 20:58:46 64° E 21:04:51 10° NNE
Aureole 2 Rocket 3.7 20:56:09 10° SSW 21:00:28 55° WNW 21:04:44 10° N
Cosmos 2034 Rocket 3.9 20:56:49 10° S 21:03:03 82° E 21:09:24 10° N
Cosmos 1464 Rocket 4.3 21:00:03 10° SSW 21:06:18 72° W 21:12:30 10° N
Cosmos 1766 Rocket 3.6 21:02:23 10° N 21:06:47 77° W 21:11:07 10° S
Cosmos 1805 3.2 21:07:51 10° S 21:11:47 83° W 21:15:45 10° N
H-2A R/B 4.4 21:14:39 11° NE 21:14:39 11° NE 21:15:03 10° NE
H-2A R/B 2.6 21:12:11 32° SSE 21:13:54 75° ENE 21:17:49 10° N
Cosmos 724 4.3 21:08:21 10° SSW 21:14:10 64° ESE 21:20:10 10° NE
Meteor 1-29 4.1 21:13:17 10° N 21:16:41 47° WNW 21:20:02 10° SSW
USA 215 3.7 21:16:36 10° NE 21:23:02 63° NW 21:29:28 10° WSW
Cosmos 1544 3.1 21:23:41 10° S 21:27:24 79° W 21:31:10 10° N
Cosmos 1346 4.1 21:24:58 10° NNW 21:27:01 40° NNW 21:27:01 40° NNW
FENGYUN 3A 4.0 21:26:05 10° S 21:31:24 66° WSW 21:36:47 10° NNW
Cosmos 1470 4.4 21:34:27 24° NNE 21:34:27 24° NNE 21:36:06 10° NNE
Cosmos-2242 3.7 21:28:35 10° SSW 21:32:50 55° W 21:37:10 10° N
ERS-1 Rocket 3.3 21:34:40 45° ENE 21:34:40 45° ENE 21:39:12 10° N
Cosmos 1452 Rocket 4.2 21:33:04 10° NNW 21:38:10 52° WSW 21:41:52 18° S
Cosmos 1842 Rocket 3.4 21:39:26 76° NE 21:39:26 76° NE 21:43:32 10° N
Cosmos 1500 Rocket 3.4 21:37:08 10° N 21:41:34 88° ENE 21:41:43 84° SSE
SeaSat 1 2.3 21:36:52 10° NNE 21:41:50 89° WNW 21:46:47 10° SSW
Cosmos 2369 Rocket 2.5 21:38:09 10° NNW 21:43:36 47° ENE 21:43:36 47° ENE
Cosmos 1603 3.8 21:39:44 10° SSW 21:45:28 77° WNW 21:51:16 10° NNE
Resurs 01 Rocket 4.1 21:42:45 10° SW 21:46:07 21° W 21:49:31 10° NW
Cosmos 839 Rocket 4.4 21:40:24 10° NNW 21:48:07 55° NE 21:49:20 49° E
Cosmos 2151 4.4 21:49:13 10° N 21:51:24 29° N 21:51:24 29° N
Cosmos 1943 Rocket 3.5 21:50:14 10° N 21:53:53 25° NE 21:53:53 25° NE
Cosmos 1420 Rocket 4.5 21:57:03 10° NNW 22:02:14 58° WSW 22:03:18 48° SSW
Meteor 1-11 4.5 21:57:57 10° N 22:02:52 55° NE 22:02:52 55° NE
Cosmos 1674 4.3 22:04:27 10° NNW 22:07:21 35° WNW 22:07:21 35° WNW
ALOS 4.4 22:05:05 10° SSW 22:08:51 24° W 22:12:39 10° NW
Atlas Centaur 2 4.4 22:04:29 10° WSW 22:10:07 20° SSW 22:11:38 19° SSW
Cosmos 1655 Rocket 3.9 22:06:55 10° N 22:12:38 70° NE 22:12:38 70° NE
GP-B 4.2 22:12:59 10° N 22:16:39 43° WNW 22:16:39 43° WNW
H-2A R/B 4.5 22:24:26 11° NNE 22:24:26 11° NNE 22:24:37 10° NNE
Envisat 3.9 22:30:15 47° NW 22:30:15 47° NW 22:34:00 10° NNW
ATLAS 5 CENTAUR R/B 3.9 22:32:39 10° W 22:36:42 25° NW 22:41:04 10° NNE
Cosmos 2026 Rocket 4.3 22:33:39 10° NNW 22:39:13 60° WNW 22:39:13 60° WNW
CENTAUR R/B 4.3 22:34:57 10° SW 22:47:41 11° NNE 22:47:55 10° NNE
Cosmos 2369 Rocket 4.3 23:22:47 10° NW 23:25:24 21° WNW 23:25:24 21° WNW
Cosmos 1943 Rocket 4.4 23:33:35 10° NW 23:35:24 20° NW 23:35:24 20° NW
